SPZOSPHO

Guest
Details From SPZO - TENIENTE ALEJANDRO VELASCO ASTETE INTL
To SPHO - CORONEL FAP ALFREDO MENDIVIL DUARTE
Flight Number -
Tags generated
Created
Modified
Stats Distance 135 nm / 249 km
Max Altitude 22,000 ft / 6,706 m
Waypoints 4
Social Downloads 3
Likes 0
Share VATSIM

Download

Looking for another format? Having issues loading an existing format? Contact us
Advertisement - Login to hide

Notes

Basic altitude profile: - Ascent Rate: 2500ft/min - Ascent Speed: 250kts - Cruise Altitude: 35000ft - Cruise Speed: 420kts - Descent Rate: 1500ft/min - Descent Speed: 250kts Options: - Use NATs: yes - Use PACOTS: yes - Use low airways: yes - Use high airways: yes

Route

SPZO BOLEP V10 AYA SPHO

ID Type Via Altitude Latitude Longitude Leg Dist Tot Dist Heading (true) Name
O SPZO APT - 0 ft / 0 m -13.53572˚ -71.93878˚ - 0 nm - TENIENTE ALEJANDRO VELASCO ASTETE INTL
BOLEP FIX - 16,200 ft / 4,938 m -13.38056˚ -72.85333˚ 54 nm 54 nm 280° / 280° -
AYA NDB V10 (AWY-LO) 22,000 ft / 6,706 m -13.15194˚ -74.20528˚ 80 nm 134 nm 280° / 280° AYACUCHO NDB
O SPHO APT - 0 ft / 0 m -13.15482˚ -74.20442˚ 0 nm 134 nm 164° / 164° CORONEL FAP ALFREDO MENDIVIL DUARTE

Altitude Profile

Advertisement - Login to hide

SPZO

Details ICAO SPZO (CUZ)
Name TENIENTE ALEJANDRO VELASCO ASTETE INTL
Region Peru
Timezone America/Lima (UTC-5.0)
Stats Elevation 10,860 ft / 3,310 m (AMSL)
Location -13.535722° -71.938780°
Runways 1
Magnetic Variation 5.633° W

METAR

SPZO 201430Z VRB03KT 9999 FEW043 15/03 Q1034 NOSIG RMK BIRD HAZARD RWY 28

Decode

TAF

TAF TAF SPZO 200500Z 2006/2106 VRB03KT 9999 SCT046 SCT100 TX21/2019Z TN03/2010Z TEMPO 2009/2012 SCT036 BKN080 FM201500 36005KT 9999 SCT050 FM210000 28005KT 9999 SCT040 SCT100

Decode

Departure Runways

ID Width Length Bearing (true) Bearing (mag) Surface Threshold Offset Overrun Length
10 148 ft / 45 m 11,135 ft / 3,394 m 95.97° 101.60° Asphalt 0 ft / 0 m 215 ft / 66 m
28 148 ft / 45 m 11,135 ft / 3,394 m 275.96° 281.59° Asphalt 0 ft / 0 m 200 ft / 61 m

SPHO

Details ICAO SPHO (AYP)
Name CORONEL FAP ALFREDO MENDIVIL DUARTE
Region Peru
Timezone America/Lima (UTC-5.0)
Stats Elevation 8,917 ft / 2,718 m (AMSL)
Location -13.154820° -74.204416°
Runways 1
Magnetic Variation 3.869° W

METAR

SPHO 201400Z VRB03KT CAVOK 15/08 Q1031 RMK PP000

Decode

TAF

SPHO 201100Z 2012/2112 VRB03KT SCT030 TX27/2019Z TN08/2111Z BECMG 2012/2014 CAVOK TEMPO 2019/2023 06010KT FEW030TCU BECMG 2023/2102 VRB02KT

Decode

Destination Runways

ID Width Length Bearing (true) Bearing (mag) Surface Threshold Offset Overrun Length
02 148 ft / 45 m 9,239 ft / 2,816 m 22.35° 26.22° Asphalt 0 ft / 0 m 0 ft / 0 m
20 148 ft / 45 m 9,239 ft / 2,816 m 202.35° 206.22° Asphalt 0 ft / 0 m 100 ft / 30 m

Popular Alternatives